[[{"header":{"parameterUnit":"m.s-1","parameterCategory":1,"la1":30.2991,"la2":30.254,"lo1":-89.0895,"lo2":-89.0444,"dy":0.0017,"dx":0.0017,"nx":28,"ny":28,"refTime":"2025-07-26T03:00:00:Z","depth":0,"parameterNumber":2,"parameterNumberName":"U-component_of_WINDS"},"data":[0,0,0,0,0,0,0,0,0,0,0,0,0,0,0,0,0,0,0,0,0,0,0,0,0,0,0,0,0,0,0,0,0,0,0,0,0,0,0,0,0,0,0,0,0,0,0,0,0,0,0,0,0,0,0,0,0,0,0.4338,0.4338,0,0.4353,0.4353,0.4353,0.4336,0.4335,0.4335,0.4334,0.4349,0.435,0.4351,0,0,0,0,0,0,0,0,0,0,0,0,0,0.4294,0.4295,0.4338,0.4338,0.4339,0.4353,0.4353,0.4353,0.4336,0.4335,0.4334,0.4334,0.4349,0.435,0.4351,0,0,0,0,0,0,0,0,0,0,0,0,0,0.4312,0.4295,0.4338,0.4332,0.4331,0.4353,0.4353,0.4353,0.4336,0.4335,0.4334,0.4333,0.4349,0.435,0.4352,0.438,0,0,0.4356,0.4357,0,0,0,0,0,0,0,0,0.4311,0.4313,0.4332,0.4332,0.4332,0.4342,0.4343,0.4363,0.4336,0.4334,0.4334,0.4333,0.4348,0.4349,0.4354,0.4381,0.4382,0.4356,0.4357,0.4358,0.4358,0,0,0,0,0,0,0,0.4309,0.4312,0.4344,0.4333,0.4332,0.4328,0.4329,0.4347,0.4346,0.4334,0.4333,0.4335,0.4347,0.4353,0.4354,0.4382,0.4356,0.4358,0.4359,0.4359,0.4432,0.4433,0,0,0,0,0,0,0.4309,0.4312,0.4344,0.4344,0.4318,0.4329,0.4331,0.4339,0.4346,0.4346,0.4336,0.4334,0.435,0.4352,0.4355,0.4388,0.4358,0.4359,0.436,0.4431,0.4433,0.4434,0,0,0,0,0,0,0.4308,0.4312,0.4343,0.4328,0.4331,0.4331,0.4341,0.434,0.4346,0.4347,0.4347,0.4342,0.435,0.4353,0.4374,0.4388,0.436,0.4361,0.443,0.4432,0.4433,0.4456,0,0,0,0,0,0,0.4307,0.4312,0.4323,0.4328,0.4332,0.4362,0.4342,0.4341,0.4348,0.4346,0.4352,0.4353,0.4349,0.4372,0.4375,0.439,0.4363,0.4429,0.4431,0.4433,0.4454,0.4458,0.4461,0,0,0,0,0,0.4305,0.4329,0.4324,0.4328,0.4346,0.4363,0.4365,0.4361,0.435,0.4361,0.4361,0.4352,0.4386,0.4374,0.4378,0.4393,0.4428,0.443,0.4433,0.4452,0.4457,0.4461,0,0,0,0,0,0,0.4326,0.433,0.4324,0.435,0.4356,0.436,0.4374,0.4367,0.4377,0.4374,0.4369,0.437,0.4393,0.4395,0.4381,0.4421,0.4405,0.4408,0.4418,0.4423,0.4427,0.4426,0.4364,0,0,0,0,0,0.4333,0.4347,0.4349,0.4372,0.4376,0.4374,0.4381,0.4377,0.4384,0.4387,0.4389,0.4396,0.4408,0.4416,0.4427,0.4454,0.4455,0.4466,0.447,0.4473,0.4476,0.449,0.4495,0.4441,0.4441,0.4441,0,0,0.4349,0.4353,0.4362,0.4376,0.4381,0.4394,0.4377,0.4392,0.4402,0.4389,0.4409,0.4411,0.4418,0.4442,0.4453,0.4445,0.4491,0.4476,0.4479,0.448,0.4493,0.4498,0.4502,0.4443,0.4443,0.4442,0,0,0.4385,0.4389,0.4408,0.4413,0.442,0.4418,0.4423,0.4428,0.4429,0.4449,0.4439,0.445,0.4471,0.4476,0.4482,0.4518,0.451,0.4522,0.4542,0.4555,0.456,0.4563,0.4576,0.458,0.4525,0.4525,0.4525,0,0.4403,0.4424,0.4419,0.4435,0.4441,0.4429,0.4448,0.4453,0.4463,0.4468,0.4459,0.4484,0.4488,0.4513,0.4521,0.4526,0.4531,0.4521,0.4559,0.4563,0.4566,0.4578,0.4583,0.4526,0.4526,0.4526,0.4526,0,0.4446,0.446,0.4474,0.4484,0.4492,0.451,0.4507,0.4515,0.451,0.451,0.453,0.4534,0.4546,0.4551,0.4547,0.4575,0.457,0.456,0.4544,0.4573,0.4584,0.4588,0.4528,0.4528,0.4527,0.4527,0,0,0.4495,0.4501,0.4506,0.451,0.4517,0.4527,0.4544,0.4555,0.4562,0.4569,0.4583,0.46,0.4591,0.4597,0.4593,0.4605,0.4633,0.4594,0.4594,0.46,0.4663,0.467,0.4675,0.4627,0.4628,0.4629,0.4662,0,0.453,0.4558,0.4554,0.4581,0.4593,0.4582,0.4596,0.4602,0.4602,0.4612,0.4612,0.4624,0.4612,0.4615,0.4627,0.4627,0.4645,0.4624,0.4639,0.464,0.4637,0.4681,0.4688,0.4719,0.4666,0.4667,0.4667,0,0.4574,0.4583,0.4611,0.4615,0.462,0.4633,0.4642,0.4652,0.4658,0.4657,0.4663,0.4657,0.4673,0.4657,0.4678,0.4664,0.467,0.4671,0.4672,0.4673,0.4655,0.4682,0.4729,0.4734,0.4674,0.4674,0.4673,0,0.4606,0.4625,0.4644,0.4648,0.4652,0.4662,0.4664,0.4669,0.4675,0.4683,0.4687,0.4697,0.4703,0.471,0.4707,0.4695,0.4729,0.4712,0.4728,0.4728,0.4735,0.4735,0.4783,0.474,0.474,0.474,0.474,0,0.4645,0.4663,0.4658,0.467,0.4689,0.4683,0.4703,0.4704,0.4708,0.4719,0.471,0.4721,0.4716,0.4727,0.4724,0.4742,0.4744,0.4744,0.4743,0.4744,0.4744,0.4748,0.4745,0.4741,0.4741,0.474,0.474,0,0.4684,0.4681,0.4701,0.4704,0.4705,0.4719,0.4721,0.4732,0.4731,0.4746,0.4749,0.4747,0.4759,0.4756,0.477,0.4768,0.479,0.4787,0.4788,0.4787,0.4803,0.4801,0.4855,0.4861,0.4814,0.4814,0.4815,0,0.4708,0.4722,0.4726,0.4733,0.4736,0.4747,0.4753,0.4748,0.4755,0.4762,0.4772,0.4783,0.4792,0.4811,0.4811,0.4821,0.4817,0.4835,0.4819,0.482,0.4817,0.4816,0.4817,0.4839,0.4839,0.484,0.484,0,0.4752,0.475,0.476,0.4769,0.4777,0.4784,0.479,0.4796,0.4792,0.48,0.4812,0.4818,0.4831,0.4842,0.4851,0.4853,0.4846,0.4845,0.4849,0.4851,0.4851,0.485,0.4797,0.4844,0.4844,0.4843,0.4843,0.4843,0.4784,0.4795,0.4799,0.481,0.4814,0.482,0.483,0.483,0.484,0.485,0.4846,0.486,0.4864,0.4875,0.4879,0.4889,0.4882,0.4888,0.4889,0.4891,0.4893,0.4849,0.4891,0.489,0.489,0.489,0.489,0,0.4827,0.4829,0.4839,0.4848,0.4856,0.4848,0.4854,0.4862,0.4874,0.4878,0.4887,0.49,0.491,0.4911,0.4921,0.4929,0.4925,0.4931,0.4931,0.4931,0.4898,0.4894,0.4934,0.4934,0.4934,0.4934,0.4934,0.4934,0.485,0.4868,0.4866,0.4886,0.4888,0.4901,0.4905,0.491,0.4913,0.4929,0.4937,0.4937,0.494,0.495,0.4959,0.4959,0.4963,0.497,0.4968,0.4938,0.4933,0.4929,0.4925,0.4971,0.4971,0.5,0.5,0.5001]},{"header":{"parameterUnit":"m.s-1","parameterCategory":1,"la1":30.2991,"la2":30.254,"lo1":-89.0895,"lo2":-89.0444,"dy":0.0017,"dx":0.0017,"nx":28,"ny":28,"refTime":"2025-07-26T03:00:00:Z","depth":0,"parameterNumber":3,"parameterNumberName":"V-component_of_WINDS"},"data":[0,0,0,0,0,0,0,0,0,0,0,0,0,0,0,0,0,0,0,0,0,0,0,0,0,0,0,0,0,0,0,0,0,0,0,0,0,0,0,0,0,0,0,0,0,0,0,0,0,0,0,0,0,0,0,0,0,0,2.6302,2.6302,0,2.6305,2.6305,2.6305,2.6247,2.6245,2.6244,2.6242,2.6245,2.6246,2.6248,0,0,0,0,0,0,0,0,0,0,0,0,0,2.6246,2.6247,2.6302,2.6302,2.6302,2.6305,2.6305,2.6305,2.6247,2.6245,2.6243,2.6241,2.6244,2.6246,2.6248,0,0,0,0,0,0,0,0,0,0,0,0,0,2.6261,2.6247,2.6302,2.6273,2.6271,2.6305,2.6305,2.6305,2.6247,2.6245,2.6243,2.624,2.6244,2.6246,2.6248,2.6309,0,0,2.6255,2.6256,0,0,0,0,0,0,0,0,2.6261,2.6263,2.6278,2.6275,2.6273,2.6273,2.6286,2.6306,2.6248,2.6256,2.6242,2.6239,2.6256,2.6257,2.6263,2.6309,2.631,2.6256,2.6257,2.6258,2.6259,0,0,0,0,0,0,0,2.6259,2.6263,2.6303,2.6278,2.6275,2.626,2.626,2.6289,2.6269,2.6255,2.6251,2.6252,2.6254,2.6261,2.6263,2.631,2.6255,2.6258,2.6259,2.626,2.6404,2.6406,0,0,0,0,0,0,2.6262,2.6263,2.6303,2.6303,2.6261,2.6263,2.6263,2.6275,2.6269,2.6266,2.6254,2.625,2.6258,2.626,2.6262,2.6332,2.6258,2.626,2.6261,2.6401,2.6404,2.6407,0,0,0,0,0,0,2.6261,2.6267,2.6303,2.6282,2.6285,2.6267,2.6281,2.6276,2.6283,2.6268,2.6264,2.6265,2.6256,2.6259,2.6298,2.6331,2.6261,2.6263,2.6399,2.6402,2.6406,2.6472,0,0,0,0,0,0,2.626,2.6267,2.629,2.6283,2.6286,2.6338,2.6283,2.6278,2.6287,2.6281,2.6277,2.6274,2.6255,2.6294,2.63,2.6333,2.6265,2.6395,2.64,2.6405,2.6466,2.6477,2.6486,0,0,0,0,0,2.6258,2.6309,2.6291,2.6297,2.6315,2.634,2.6343,2.632,2.629,2.6313,2.6303,2.6274,2.6327,2.6299,2.6304,2.6339,2.6393,2.6399,2.6404,2.6462,2.6475,2.6486,0,0,0,0,0,0,2.6321,2.6307,2.6288,2.6338,2.6341,2.6331,2.6359,2.6335,2.6346,2.634,2.6311,2.631,2.6353,2.635,2.6319,2.6396,2.6355,2.6362,2.6397,2.6409,2.6419,2.6418,2.6267,0,0,0,0,0,2.6341,2.6363,2.6349,2.6395,2.6397,2.6378,2.6388,2.637,2.6372,2.6373,2.6366,2.6368,2.6385,2.6397,2.6412,2.6466,2.6463,2.6492,2.6502,2.651,2.6516,2.6543,2.6555,2.6425,2.6425,2.6425,0,0,2.6382,2.6377,2.6393,2.6407,2.6407,2.6429,2.6379,2.6406,2.6422,2.6377,2.6412,2.6407,2.6408,2.6454,2.6474,2.6452,2.6552,2.6517,2.6524,2.6525,2.655,2.6562,2.6573,2.6429,2.6428,2.6428,0,0,2.6467,2.6467,2.6503,2.6504,2.6504,2.6491,2.65,2.6493,2.6488,2.6523,2.6489,2.6507,2.6538,2.6539,2.6544,2.6629,2.6602,2.6634,2.6686,2.6712,2.6722,2.6731,2.676,2.6771,2.6641,2.6641,2.6641,0,2.6518,2.6551,2.6525,2.6553,2.656,2.6519,2.6555,2.6558,2.6563,2.6568,2.6545,2.6581,2.6579,2.6623,2.6644,2.665,2.6658,2.6634,2.6723,2.6732,2.674,2.6767,2.6778,2.6645,2.6644,2.6644,2.6643,0,2.6612,2.6635,2.6664,2.667,2.668,2.6712,2.6691,2.6704,2.6685,2.6674,2.6709,2.6705,2.6718,2.6727,2.6709,2.6769,2.6756,2.6728,2.6685,2.6756,2.6781,2.6791,2.665,2.6649,2.6648,2.6647,0,0,2.6738,2.6727,2.6738,2.6739,2.6736,2.6753,2.6783,2.6795,2.6806,2.6811,2.6834,2.686,2.6834,2.684,2.6821,2.6845,2.691,2.6814,2.6813,2.683,2.6973,2.6993,2.7006,2.6892,2.6894,2.6896,2.6973,0,2.682,2.6869,2.6846,2.6898,2.6918,2.688,2.6905,2.6906,2.6896,2.6911,2.6901,2.6919,2.6884,2.6887,2.6908,2.6897,2.6938,2.6892,2.6913,2.6914,2.6912,2.7019,2.704,2.7113,2.6983,2.6984,2.6985,0,2.6922,2.6929,2.6983,2.6975,2.6982,2.7006,2.7013,2.7029,2.7028,2.7019,2.7025,2.7001,2.7029,2.6987,2.7024,2.6993,2.7001,2.6997,2.6999,2.6999,2.6953,2.7021,2.7136,2.7147,2.7001,2.6999,2.6998,0,2.7006,2.703,2.7065,2.7067,2.7058,2.7075,2.7073,2.707,2.7077,2.7085,2.7089,2.71,2.7106,2.7114,2.7093,2.7065,2.7133,2.709,2.7126,2.7126,2.7141,2.714,2.7258,2.7148,2.7148,2.7148,2.7147,0,2.7099,2.7133,2.7102,2.7123,2.716,2.7133,2.717,2.7163,2.716,2.7179,2.7147,2.7165,2.7137,2.7153,2.7137,2.7169,2.7172,2.7165,2.7161,2.7168,2.7168,2.7171,2.7165,2.715,2.715,2.7149,2.7149,0,2.7199,2.718,2.7215,2.7203,2.7201,2.7228,2.7218,2.7237,2.7224,2.7248,2.7252,2.7233,2.725,2.723,2.7245,2.7234,2.7278,2.7266,2.7278,2.7274,2.731,2.7306,2.7433,2.7447,2.7329,2.7331,2.7332,0,2.7259,2.7284,2.7274,2.7284,2.7282,2.7299,2.7307,2.7281,2.729,2.729,2.7309,2.7322,2.7332,2.736,2.7347,2.7358,2.7345,2.7389,2.7347,2.7353,2.7344,2.7343,2.7344,2.7397,2.7399,2.74,2.7401,0,2.7366,2.7355,2.7367,2.7375,2.7385,2.739,2.7393,2.7404,2.7376,2.7388,2.7404,2.7411,2.7426,2.7439,2.7446,2.7443,2.7417,2.7414,2.7423,2.743,2.7435,2.7431,2.73,2.7411,2.741,2.741,2.7409,2.7409,2.7447,2.7467,2.7462,2.7476,2.7475,2.7479,2.7495,2.7484,2.7497,2.7506,2.749,2.751,2.7507,2.7514,2.7514,2.7529,2.751,2.7523,2.7526,2.7529,2.7534,2.7433,2.753,2.753,2.7529,2.7529,2.7529,0,2.7552,2.7547,2.756,2.7564,2.7575,2.7549,2.7551,2.7561,2.7579,2.7578,2.7587,2.7605,2.7618,2.7606,2.7616,2.763,2.7618,2.7633,2.7631,2.7631,2.7551,2.7541,2.7642,2.7642,2.7642,2.7642,2.7642,2.7642,2.7607,2.7639,2.7627,2.7657,2.7651,2.767,2.7673,2.7675,2.7674,2.7695,2.7705,2.7697,2.7691,2.77,2.7711,2.7707,2.7711,2.7731,2.7722,2.7648,2.7636,2.7626,2.7617,2.7732,2.7732,2.7801,2.7802,2.7802]}]]